Torna al catalogo

SITRO-AIS-22

AttivoComunicazioniSSO
NORAD 61740·PAYLOAD·🇷🇺 Russia
Questo nome del satellite non è ancora stato confermato da fonti ufficiali.

Lanciato Nov 4, 2024 da Vostochny Cosmodrome

Loading…

Prossimi Passaggi (prossime 24 ore)

TLE

AggiornatoSource: Space-Track

Epoca: Sep 14, 2026, 14:13 UTC

1 61740U 24199F   26257.59270518  .00001558  00000-0  14248-3 0  9993
2 61740  97.3216  89.8480 0013637 117.3827 242.8785 14.96252129145281

Traccia SITRO-AIS-22 in tempo reale con AllMySat

Download on the App Store